Location: La Oliva
(42.2466°N, 2.9955°E)
Time: 06:35:32
(UTC+00:00)

Cosmos 1455 - Pass Details

Date: 22 April 2021
Orbit: 497 x 521 km, 82.5° (Epoch: 07 May)

Event Time Altitude Azimuth Distance (km) Brightness Sun altitude
Rises 19:39:58 0° 202° (SSW) 2,585 5.7 -11.4°
Reaches altitude 10° 19:42:10 10° 209° (SSW) 1,703 4.8 -11.8°
Maximum altitude 19:45:42 42° 281° (WNW) 728 3.5 -12.4°
Drops below altitude 10° 19:49:17 10° 354° (N) 1,710 5.3 -12.9°
Sets 19:51:29 0° 1° (N) 2,597 6.2 -13.3°
